CDT,Max TemperatureF,Mean TemperatureF,Min TemperatureF,Max Dew PointF,MeanDew PointF,Min DewpointF,Max Humidity, Mean Humidity, Min Humidity, Max Sea Level PressureIn, Mean Sea Level PressureIn, Min Sea Level PressureIn, Max VisibilityMiles, Mean VisibilityMiles, Min VisibilityMiles, Max Wind SpeedMPH, Mean Wind SpeedMPH, Max Gust SpeedMPH,PrecipitationIn, CloudCover, Events, WindDirDegrees
2013-9-1,78,70,62,66,63,55,100,82,61,29.84,29.77,29.71,10,9,0,15,7,20,0.00,3,,237
2013-9-2,62,58,55,57,50,46,82,70,59,30.01,29.95,29.84,10,10,10,18,13,23,0.00,7,,335
2013-9-3,71,61,51,52,50,46,88,67,43,30.07,30.01,29.96,10,10,10,13,8,17,0.00,0,,267
2013-9-4,68,62,55,57,54,45,82,74,60,30.20,30.08,29.97,10,10,10,17,8,21,0.00,3,,349
2013-9-5,64,57,50,48,45,43,82,65,52,30.33,30.28,30.20,10,10,10,9,6,,0.00,0,,93
2013-9-6,75,63,51,64,55,45,88,72,53,30.24,30.11,29.94,10,10,10,20,8,23,0.00,1,,189
2013-9-7,82,72,60,68,63,57,88,76,58,30.07,29.94,29.89,10,10,9,20,9,29,0.01,4,Thunderstorm,300
2013-9-8,69,62,57,57,53,46,88,71,46,30.16,30.09,30.01,10,10,10,15,9,22,0.00,1,,67
2013-9-9,84,69,60,72,63,57,94,87,66,30.02,29.87,29.71,10,8,3,17,8,24,0.00,6,,163
2013-9-10,87,76,66,70,67,63,94,65,52,29.98,29.85,29.71,10,10,5,20,13,28,0.65,2,Thunderstorm,258
2013-9-11,78,71,64,66,63,55,94,76,57,30.00,29.96,29.92,10,10,10,13,7,21,0.01,2,Thunderstorm,240
2013-9-12,66,58,51,55,51,39,82,72,58,30.15,30.04,29.96,10,10,10,23,10,31,0.00,4,,357
2013-9-13,57,50,44,45,40,37,93,65,51,30.24,30.19,30.14,10,10,10,22,15,30,0.00,3,,358
2013-9-14,66,55,44,52,45,39,87,67,42,30.16,30.08,29.99,10,10,10,15,5,20,0.00,0,,213
2013-9-15,60,54,48,54,49,37,94,79,63,30.28,30.09,29.98,10,10,5,21,8,28,0.22,8,,319
2013-9-16,57,48,42,43,39,37,82,66,54,30.44,30.38,30.28,10,10,10,13,8,18,0.00,2,,56
2013-9-17,62,52,42,52,47,36,93,79,68,30.37,30.28,30.13,10,10,10,15,5,21,0.00,3,,167
2013-9-18,69,62,55,63,59,52,94,87,78,30.12,29.99,29.90,10,10,6,20,10,26,0.45,6,Thunderstorm,173
2013-9-19,78,71,64,70,65,63,94,89,74,29.90,29.82,29.70,10,7,2,20,10,25,0.20,4,Thunderstorm,171
2013-9-20,71,64,57,64,60,46,94,80,60,29.78,29.71,29.67,10,10,10,18,10,24,0.00,5,,252
2013-9-21,55,52,48,46,42,34,82,67,54,29.98,29.87,29.79,10,10,10,17,12,24,0.00,6,,332
2013-9-22,51,46,41,39,38,36,87,68,58,30.11,30.07,29.98,10,10,10,9,6,,0.00,7,,31
2013-9-23,57,48,39,45,42,37,93,79,59,30.18,30.13,30.10,10,10,5,14,3,17,0.00,2,,148
2013-9-24,64,55,46,55,50,45,93,82,68,30.12,30.07,30.02,10,10,5,9,6,,0.00,2,,134
2013-9-25,64,55,46,55,51,45,100,85,63,30.05,30.03,30.01,10,7,0,8,3,,0.00,2,,64
2013-9-26,68,58,48,57,52,46,100,81,56,30.13,30.10,30.03,10,7,0,12,3,,0.00,1,,140
2013-9-27,71,61,51,61,55,48,100,77,59,30.18,30.14,30.10,10,9,1,16,8,20,0.00,0,,159
2013-9-28,69,63,57,61,57,54,94,79,64,30.09,29.97,29.81,10,10,4,23,13,33,0.22,3,,176
2013-9-29,66,58,50,54,47,43,88,72,46,30.05,30.00,29.91,10,10,10,13,8,16,0.00,1,,240
2013-9-30,66,58,50,54,45,37,82,63,49,30.00,29.91,29.82,10,10,10,20,10,26,0.00,0,,183